548  
ASUS44 KBMX 250010  
RWRAL  
 
ALABAMA REGIONAL WEATHER ROUNDUP  
NATIONAL WEATHER SERVICE BIRMINGHAM AL  
700 PM CDT WED APR 24 2019  
 
NOTE: "FAIR" INDICATES FEW OR NO CLOUDS BELOW 12,000 FEET  
WITH NO SIGNIFICANT WEATHER AND/OR S TO VISIBILITY
.  
 
THE REMARK "TC" DENOTES TEMPERATURE IN DEGREES CELSIUS.  
 
ALZ001>011-014-016>018-020-250100-  
NORTH ALABAMA  
 
CITY SKY/WX TMP DP RH WIND PRES REMARKS
 
MUSCLE SHOALS FAIR 79 54 41 S8 29.88R  
6HR MIN TEMP: 78; 6HR MAX TEMP: 83;  
 
HUNTSVILLE FAIR 78 54 43 S6 29.88R  
6HR MIN TEMP: 78; 6HR MAX TEMP: 84;  
 
DECATUR FAIR 76 54 46 S8 29.88R  
6HR MIN TEMP: 76; 6HR MAX TEMP: 84;  
 
HALEYVILLE MOCLDY 75 56 51 S12 29.92S  
6HR MIN TEMP: 75; 6HR MAX TEMP: 82;  
 
GADSDEN FAIR 77 52 41 S6 29.91S  
6HR MIN TEMP: 77; 6HR MAX TEMP: 83;  
 

 
 
ALZ012-013-022-023-030>036-040>044-250100-  
WEST CENTRAL ALABAMA  
 
CITY SKY/WX TMP DP RH WIND PRES REMARKS
 
TUSCALOOSA FAIR 77 57 50 S6 29.90S  
6HR MIN TEMP: 77; 6HR MAX TEMP: 84;  
 
DEMOPOLIS FAIR 76 59 55 CALM 29.92R  
6HR MIN TEMP: 76; 6HR MAX TEMP: 82;  
 

 
 
ALZ015-024>026-033>036-041>044-250100-  
CENTRAL ALABAMA  
 
CITY SKY/WX TMP DP RH WIND PRES REMARKS
 
BIRMINGHAM FAIR 78 54 43 SW9 29.94R  
6HR MIN TEMP: 78; 6HR MAX TEMP: 84;  
 
MONTGOMERY FAIR 76 60 57 S6 29.95R  
6HR MIN TEMP: 76; 6HR MAX TEMP: 83;  
 
SHELBY CO ARPT FAIR 75 57 53 S7 29.93R  
6HR MIN TEMP: 75; 6HR MAX TEMP: 82;  
 
MAXWELL AFB FAIR 76 61 58 S7 29.93  
6HR MIN TEMP: 76; 6HR MAX TEMP: 82;  
 
GREENVILLE FAIR 74 57 55 S5 29.95F  
6HR MIN TEMP: 74; 6HR MAX TEMP: 82;  
 
SELMA N/A 75 59 57 S7 29.93F  
PRATTVILLE FAIR 75 61 61 CALM 29.93F  
6HR MIN TEMP: 75; 6HR MAX TEMP: 81;  
 
BESSEMER FAIR 74 58 57 S6 29.94R  
6HR MIN TEMP: 74; 6HR MAX TEMP: 82;  
 
TALLADEGA FAIR 76 51 40 SW6 29.93S  
6HR MIN TEMP: 76; 6HR MAX TEMP: 83;  
 
PELL CITY CLEAR 77 55 47 S5 29.92S  
MARION FAIR 76 62 61 S9 29.93R  
6HR MIN TEMP: 76; 6HR MAX TEMP: 83;  
 
SYLACAUGA FAIR 75 55 49 SW7 29.93S  
6HR MIN TEMP: 75; 6HR MAX TEMP: 82;  
 

 
 
ALZ019-021-028-029-037-038-045>048-250100-  
EAST CENTRAL ALABAMA  
 
CITY SKY/WX TMP DP RH WIND PRES REMARKS
 
ANNISTON FAIR 76 48 37 SW7 29.92S  
6HR MIN TEMP: 76; 6HR MAX TEMP: 83;  
 
ALEXANDER CITY FAIR 75 59 57 SW3 29.95S  
6HR MIN TEMP: 75; 6HR MAX TEMP: 82;  
 
AUBURN FAIR 74 56 53 SW8 29.97S  
6HR MIN TEMP: 74; 6HR MAX TEMP: 82;  
 

 
 
ALZ051>064-250100-  
SOUTHWEST ALABAMA  
 
CITY SKY/WX TMP DP RH WIND PRES REMARKS
 
MOBILE MOCLDY 73 66 78 S8 29.98R  
6HR MIN TEMP: 73; 6HR MAX TEMP: 78;  
 
BROOKLEY FIELD MOCLDY 72 69 90 S6 29.99R  
6HR MIN TEMP: 72; 6HR MAX TEMP: 76;  
 
EVERGREEN FAIR 75 62 64 S7 29.96S  
6HR MIN TEMP: 75; 6HR MAX TEMP: 83;  
 

 
 
ALZ049-050-065>069-250100-  
SOUTHEAST ALABAMA  
 
CITY SKY/WX TMP DP RH WIND PRES REMARKS
 
DOTHAN FAIR 72 56 57 SW7 30.02S  
6HR MIN TEMP: 72; 6HR MAX TEMP: 81;  
 
OZARK FAIR 72 59 63 S9 29.98S  
6HR MIN TEMP: 72; 6HR MAX TEMP: 80;  
 
TROY FAIR 72 58 61 S6 29.98R  
6HR MIN TEMP: 72; 6HR MAX TEMP: 81;  
 
EUFAULA NOT AVBL  

 
 
 
CLICK HERE TO GO TO PREVIOUS BULLETINS.

The Nexlab AL Page Main Text Page